User: anonymous   Login
Location: Unspecified
(0.0000°N, 0.0000°E)
Time: 00:09:56
(UTC+00:00)
Language:

ONEWEB-0703 - Orbit

View from above orbital plane
View from above orbital plane
View from above satellite
View from above satellite

Ground track
Ground track

The orbit is defined by the following mean orbital elements,

1 56724U          26145.36497060 +.00000000 +00000-0 -15278-3 0 00007
2 56724  87.8989 263.7508 0001901  73.5629 286.5710 13.15547244    04
Epoch (UTC): 25 May 2026 08:45:33
Eccentricity: 0.0001901
inclination: 87.8989°
perigee height: 1200 km
apogee height: 1203 km
right ascension of ascending node: 263.7508°
argument of perigee: 73.5629°
revolutions per day: 13.15547244
mean anomaly at epoch: 286.5710°

The dashed part of the orbit path shows where the satellite is in the earth's shadow,  

DLR